User: anonymous   Login
Location: Bowman Observatory
(41.0326°N, 73.6210°W)
Time: 05:16:52
(UTC-05:00)
Language:

Cosmos 2297 - Orbit

View from above orbital plane
View from above orbital plane
View from above satellite
View from above satellite

Ground track
Ground track

The orbit data is extracted from the following two-line orbital elements,

1 23404U 94077A   16338.53724794 -.00000089  00000-0 -22247-4 0  9992
2 23404  71.0141 342.5391 0013065  83.9570 276.3040 14.13493093136428
Epoch (UTC): 03 December 2016 12:53:38
Eccentricity: 0.0013065
inclination: 71.0141°
perigee height: 838 km
apogee height: 857 km
right ascension of ascending node: 342.5391°
argument of perigee: 83.9570°
revolutions per day: 14.13493093
mean anomaly at epoch: 276.3040°
orbit number at epoch: 13642

The dashed part of the orbit path shows where the satellite is in the earth's shadow,  

DLR